Location: Poprad
(49.0500°N, 20.3000°E)
Time: 12:03:37
(UTC+02:00)

PCSat - Pass Details

Date: 29 April 2024
Orbit: 783 x 792 km, 67.1° (Epoch: 18 May)

Event Time Altitude Azimuth Distance (km) Brightness Sun altitude
Rises 00:58:49 0° 326° (NW) 3,300 13.5 -26.2°
Reaches altitude 10° 01:01:41 10° 340° (NNW) 2,368 12.8 -26.2°
Maximum altitude 01:06:07 25° 35° (NE) 1,570 11.7 -26.1°
Drops below altitude 10° 01:10:31 10° 89° (E) 2,360 12.1 -26.0°
Sets 01:13:22 0° 103° (ESE) 3,286 12.8 -25.9°
